Time,TemperatureF,DewpointF,PressureIn,WindDirection,WindDirectionDegrees,WindSpeedMPH,WindSpeedGustMPH,Humidity,HourlyPrecipIn,Conditions,Clouds,dailyrainin,SolarRadiationWatts/m^2,SoftwareType,DateUTC
2013-06-24 00:02:00,67.6,64.0,29.85,East,93,0.0,0.0,88,0.00,,,0.79,0.0,meteohub,2013-06-24 05:02:00,
2013-06-24 00:07:00,67.5,63.9,29.85,East,93,0.0,0.0,88,0.00,,,0.00,0.0,meteohub,2013-06-24 05:07:00,
2013-06-24 00:12:00,67.3,63.7,29.86,East,93,0.0,0.0,88,0.00,,,0.00,0.0,meteohub,2013-06-24 05:12:00,
2013-06-24 00:17:00,66.9,63.5,29.86,East,93,0.0,0.0,89,0.00,,,0.00,0.0,meteohub,2013-06-24 05:17:00,
2013-06-24 00:22:00,66.7,63.1,29.86,East,93,0.0,0.0,88,0.00,,,0.00,0.0,meteohub,2013-06-24 05:22:00,
2013-06-24 00:27:00,66.7,63.3,29.86,East,93,0.0,0.0,89,0.00,,,0.00,0.0,meteohub,2013-06-24 05:27:00,
2013-06-24 00:32:00,66.7,63.3,29.86,East,93,0.0,0.0,89,0.00,,,0.00,0.0,meteohub,2013-06-24 05:32:00,
2013-06-24 00:37:00,66.6,63.1,29.86,East,93,0.0,0.0,89,0.00,,,0.00,0.0,meteohub,2013-06-24 05:37:00,
2013-06-24 00:42:00,66.6,63.1,29.86,East,93,0.0,0.0,89,0.00,,,0.00,0.0,meteohub,2013-06-24 05:42:00,
2013-06-24 00:47:00,66.4,62.8,29.86,East,93,0.0,0.0,88,0.00,,,0.00,0.0,meteohub,2013-06-24 05:47:00,
2013-06-24 00:52:00,66.4,63.0,29.86,East,93,0.0,0.0,89,0.00,,,0.00,0.0,meteohub,2013-06-24 05:52:00,
2013-06-24 00:57:00,66.4,63.3,29.86,East,93,0.0,0.0,90,0.00,,,0.00,0.0,meteohub,2013-06-24 05:57:00,
2013-06-24 01:03:00,66.2,63.1,29.87,East,93,0.0,0.0,90,0.00,,,0.00,0.0,meteohub,2013-06-24 06:03:00,
2013-06-24 01:08:00,66.0,62.6,29.87,East,93,0.0,0.0,89,0.00,,,0.00,0.0,meteohub,2013-06-24 06:08:00,
2013-06-24 01:13:00,66.2,63.1,29.87,East,93,0.0,0.0,90,0.00,,,0.00,0.0,meteohub,2013-06-24 06:13:00,
2013-06-24 01:18:00,66.0,62.6,29.87,East,93,0.0,0.0,89,0.00,,,0.00,0.0,meteohub,2013-06-24 06:18:00,
2013-06-24 01:23:00,66.0,62.6,29.87,East,93,0.0,0.0,89,0.00,,,0.00,0.0,meteohub,2013-06-24 06:23:00,
2013-06-24 01:28:00,66.0,62.4,29.87,East,93,0.0,0.0,88,0.00,,,0.00,0.0,meteohub,2013-06-24 06:28:00,
2013-06-24 01:34:00,66.0,62.6,29.86,East,93,0.0,0.0,89,0.00,,,0.00,0.0,meteohub,2013-06-24 06:34:00,
2013-06-24 01:40:00,66.2,62.8,29.86,East,93,0.0,0.0,89,0.00,,,0.00,0.0,meteohub,2013-06-24 06:40:00,
2013-06-24 01:45:00,65.8,62.4,29.86,East,93,0.0,0.0,89,0.00,,,0.00,0.0,meteohub,2013-06-24 06:45:00,
2013-06-24 01:50:00,65.8,62.4,29.86,East,93,0.0,0.0,89,0.00,,,0.00,0.0,meteohub,2013-06-24 06:50:00,
2013-06-24 01:55:00,65.7,62.6,29.86,East,93,0.0,0.0,90,0.00,,,0.00,0.0,meteohub,2013-06-24 06:55:00,
2013-06-24 02:00:00,65.7,62.2,29.86,East,93,0.0,0.0,89,0.00,,,0.00,0.0,meteohub,2013-06-24 07:00:00,
2013-06-24 02:05:00,65.7,62.6,29.86,East,93,0.0,0.0,90,0.00,,,0.00,0.0,meteohub,2013-06-24 07:05:00,
2013-06-24 02:10:00,65.5,62.2,29.86,East,93,0.0,0.0,89,0.00,,,0.00,0.0,meteohub,2013-06-24 07:10:00,
2013-06-24 02:15:00,65.5,62.4,29.86,East,93,0.0,0.0,90,0.00,,,0.00,0.0,meteohub,2013-06-24 07:15:00,
2013-06-24 02:20:00,65.3,62.2,29.86,East,93,0.0,0.0,90,0.00,,,0.00,0.0,meteohub,2013-06-24 07:20:00,
2013-06-24 02:25:00,65.3,62.1,29.86,East,93,0.0,0.0,89,0.00,,,0.00,0.0,meteohub,2013-06-24 07:25:00,
2013-06-24 02:31:00,65.1,61.5,29.86,East,93,0.0,0.0,88,0.00,,,0.00,0.0,meteohub,2013-06-24 07:31:00,
2013-06-24 02:36:00,64.9,61.7,29.86,East,93,0.0,0.0,89,0.00,,,0.00,0.0,meteohub,2013-06-24 07:36:00,
2013-06-24 02:41:00,64.9,61.3,29.86,East,93,0.0,0.0,88,0.00,,,0.00,0.0,meteohub,2013-06-24 07:41:00,
2013-06-24 02:46:00,64.9,61.3,29.86,East,93,0.0,0.0,88,0.00,,,0.00,0.0,meteohub,2013-06-24 07:46:00,
2013-06-24 02:51:00,64.8,61.2,29.86,East,93,0.0,0.0,88,0.00,,,0.00,0.0,meteohub,2013-06-24 07:51:00,
2013-06-24 02:56:00,64.8,61.5,29.85,East,93,0.0,0.0,89,0.00,,,0.00,0.0,meteohub,2013-06-24 07:56:00,
2013-06-24 03:01:00,64.8,61.5,29.85,East,93,0.0,0.0,89,0.00,,,0.00,0.0,meteohub,2013-06-24 08:01:00,
2013-06-24 03:07:00,64.6,61.3,29.86,East,93,0.0,0.0,89,0.00,,,0.00,0.0,meteohub,2013-06-24 08:07:00,
2013-06-24 03:12:00,64.4,61.2,29.85,East,93,0.0,0.0,89,0.00,,,0.00,0.0,meteohub,2013-06-24 08:12:00,
2013-06-24 03:17:00,64.2,61.0,29.84,East,93,0.0,0.0,89,0.00,,,0.00,0.0,meteohub,2013-06-24 08:17:00,
2013-06-24 03:22:00,64.2,61.0,29.84,East,93,0.0,0.0,89,0.00,,,0.00,0.0,meteohub,2013-06-24 08:22:00,
2013-06-24 03:27:00,64.0,61.0,29.84,East,93,0.0,0.0,90,0.00,,,0.00,0.0,meteohub,2013-06-24 08:27:00,
2013-06-24 03:32:00,63.9,60.8,29.84,East,93,0.0,0.0,90,0.00,,,0.00,0.0,meteohub,2013-06-24 08:32:00,
2013-06-24 03:37:00,63.7,60.6,29.84,East,93,0.0,0.0,90,0.00,,,0.00,0.0,meteohub,2013-06-24 08:37:00,
2013-06-24 03:42:00,63.5,60.8,29.84,East,93,0.0,0.0,91,0.00,,,0.00,0.0,meteohub,2013-06-24 08:42:00,
2013-06-24 03:47:00,63.3,60.6,29.84,East,93,0.0,0.0,91,0.00,,,0.00,0.0,meteohub,2013-06-24 08:47:00,
2013-06-24 03:52:00,63.1,60.4,29.83,East,93,0.0,0.0,91,0.00,,,0.00,0.0,meteohub,2013-06-24 08:52:00,
2013-06-24 03:57:00,63.0,60.3,29.84,East,93,0.0,0.0,91,0.00,,,0.00,0.0,meteohub,2013-06-24 08:57:00,
2013-06-24 04:02:00,62.8,60.4,29.84,East,93,0.0,0.0,92,0.00,,,0.00,0.0,meteohub,2013-06-24 09:02:00,
2013-06-24 04:07:00,62.4,60.1,29.84,East,93,0.0,0.0,92,0.00,,,0.00,0.0,meteohub,2013-06-24 09:07:00,
2013-06-24 04:12:00,62.2,59.9,29.84,East,93,0.0,0.0,92,0.00,,,0.00,0.0,meteohub,2013-06-24 09:12:00,
2013-06-24 04:17:00,61.9,59.9,29.84,East,93,0.0,0.0,93,0.00,,,0.00,0.0,meteohub,2013-06-24 09:17:00,
2013-06-24 04:22:00,61.5,59.7,29.84,East,93,0.0,0.0,94,0.00,,,0.00,0.0,meteohub,2013-06-24 09:22:00,
2013-06-24 04:27:00,61.3,59.5,29.84,East,93,0.0,0.0,94,0.00,,,0.00,0.0,meteohub,2013-06-24 09:27:00,
2013-06-24 04:32:00,61.3,59.5,29.85,East,93,0.0,0.0,94,0.00,,,0.00,0.0,meteohub,2013-06-24 09:32:00,
2013-06-24 04:37:00,61.3,59.9,29.85,East,93,0.0,0.0,95,0.00,,,0.00,0.0,meteohub,2013-06-24 09:37:00,
2013-06-24 04:42:00,61.5,60.1,29.85,East,93,0.0,0.0,95,0.00,,,0.00,0.0,meteohub,2013-06-24 09:42:00,
2013-06-24 04:47:00,61.5,60.1,29.85,East,93,0.0,0.0,95,0.00,,,0.00,0.0,meteohub,2013-06-24 09:47:00,
2013-06-24 04:52:00,61.5,60.1,29.85,East,93,0.0,0.0,95,0.00,,,0.00,0.0,meteohub,2013-06-24 09:52:00,
2013-06-24 04:58:00,61.7,60.3,29.85,East,93,0.0,0.0,95,0.00,,,0.00,0.0,meteohub,2013-06-24 09:58:00,
2013-06-24 05:03:00,61.5,60.1,29.86,East,93,0.0,0.0,95,0.00,,,0.00,0.0,meteohub,2013-06-24 10:03:00,
2013-06-24 05:08:00,61.3,59.9,29.85,East,93,0.0,0.0,95,0.00,,,0.00,0.0,meteohub,2013-06-24 10:08:00,
2013-06-24 05:13:00,61.5,60.1,29.85,East,93,0.0,0.0,95,0.00,,,0.00,0.0,meteohub,2013-06-24 10:13:00,
2013-06-24 05:18:00,61.7,60.3,29.85,East,93,0.0,0.0,95,0.00,,,0.00,0.0,meteohub,2013-06-24 10:18:00,
2013-06-24 05:24:00,61.5,60.1,29.85,East,93,0.0,0.0,95,0.00,,,0.00,0.0,meteohub,2013-06-24 10:24:00,
2013-06-24 05:30:00,61.3,59.9,29.85,East,93,0.0,0.0,95,0.00,,,0.00,0.0,meteohub,2013-06-24 10:30:00,
2013-06-24 05:35:00,61.2,59.7,29.86,East,93,0.0,0.0,95,0.00,,,0.00,5.0,meteohub,2013-06-24 10:35:00,
2013-06-24 05:40:00,61.2,59.7,29.85,East,93,0.0,0.0,95,0.00,,,0.00,5.0,meteohub,2013-06-24 10:40:00,
2013-06-24 05:45:00,61.0,59.5,29.86,East,93,0.0,0.0,95,0.00,,,0.00,7.0,meteohub,2013-06-24 10:45:00,
2013-06-24 05:50:00,61.0,59.9,29.86,East,93,0.0,0.0,96,0.00,,,0.00,9.0,meteohub,2013-06-24 10:50:00,
2013-06-24 05:56:00,61.0,59.9,29.86,East,93,0.0,0.0,96,0.00,,,0.00,11.0,meteohub,2013-06-24 10:56:00,
2013-06-24 06:01:00,61.0,59.9,29.86,East,93,0.0,0.0,96,0.00,,,0.00,14.0,meteohub,2013-06-24 11:01:00,
2013-06-24 06:06:00,61.0,59.9,29.86,East,93,0.0,0.0,96,0.00,,,0.00,18.0,meteohub,2013-06-24 11:06:00,
2013-06-24 06:11:00,61.0,59.9,29.86,East,93,0.0,0.0,96,0.00,,,0.00,21.0,meteohub,2013-06-24 11:11:00,
2013-06-24 06:16:00,61.0,59.9,29.86,East,93,0.0,0.0,96,0.00,,,0.00,25.0,meteohub,2013-06-24 11:16:00,
2013-06-24 06:21:00,61.2,60.1,29.86,East,93,0.0,0.0,96,0.00,,,0.00,26.0,meteohub,2013-06-24 11:21:00,
2013-06-24 06:27:00,61.2,60.1,29.87,East,93,0.0,0.0,96,0.00,,,0.00,26.0,meteohub,2013-06-24 11:27:00,
2013-06-24 06:32:00,61.2,60.1,29.86,East,93,0.0,0.0,96,0.00,,,0.00,25.0,meteohub,2013-06-24 11:32:00,
2013-06-24 06:37:00,61.3,60.4,29.87,East,93,0.0,0.0,97,0.00,,,0.00,21.0,meteohub,2013-06-24 11:37:00,
2013-06-24 06:42:00,61.3,60.4,29.87,East,93,0.0,0.0,97,0.00,,,0.00,19.0,meteohub,2013-06-24 11:42:00,
2013-06-24 06:47:00,61.5,60.4,29.86,East,93,0.0,0.0,96,0.00,,,0.00,19.0,meteohub,2013-06-24 11:47:00,
2013-06-24 06:52:00,61.9,61.0,29.86,East,93,0.0,0.0,97,0.00,,,0.00,23.0,meteohub,2013-06-24 11:52:00,
2013-06-24 06:57:00,62.1,61.2,29.86,East,93,0.0,0.0,97,0.00,,,0.00,26.0,meteohub,2013-06-24 11:57:00,
2013-06-24 07:02:00,62.1,61.2,29.85,East,93,0.0,0.0,97,0.00,,,0.00,28.0,meteohub,2013-06-24 12:02:00,
2013-06-24 07:07:00,62.2,61.3,29.84,East,93,0.0,0.0,97,0.00,,,0.00,33.0,meteohub,2013-06-24 12:07:00,
2013-06-24 07:12:00,62.4,61.5,29.84,East,93,0.0,0.0,97,0.00,,,0.00,37.0,meteohub,2013-06-24 12:12:00,
2013-06-24 07:17:00,62.6,61.7,29.84,East,93,0.0,0.0,97,0.00,,,0.00,40.0,meteohub,2013-06-24 12:17:00,
2013-06-24 07:22:00,63.0,62.1,29.83,East,93,0.0,0.0,97,0.00,,,0.00,49.0,meteohub,2013-06-24 12:22:00,
2013-06-24 07:27:00,63.1,62.2,29.83,East,93,0.0,0.0,97,0.00,,,0.00,58.0,meteohub,2013-06-24 12:27:00,
2013-06-24 07:32:00,63.7,62.8,29.83,East,93,0.0,0.0,97,0.00,,,0.00,54.0,meteohub,2013-06-24 12:32:00,
2013-06-24 07:37:00,63.9,63.0,29.83,East,93,0.0,0.0,97,0.00,,,0.00,58.0,meteohub,2013-06-24 12:37:00,
2013-06-24 07:42:00,64.2,63.1,29.83,East,93,0.0,0.0,96,0.00,,,0.00,65.0,meteohub,2013-06-24 12:42:00,
2013-06-24 07:47:00,64.8,63.7,29.83,East,93,0.0,0.0,96,0.00,,,0.00,70.0,meteohub,2013-06-24 12:47:00,
2013-06-24 07:52:00,65.5,64.0,29.83,East,93,0.0,0.0,95,0.00,,,0.00,91.0,meteohub,2013-06-24 12:52:00,
2013-06-24 07:57:00,66.2,64.4,29.84,East,93,0.0,0.0,94,0.00,,,0.00,221.0,meteohub,2013-06-24 12:57:00,
2013-06-24 08:03:00,67.3,64.6,29.84,ENE,78,0.0,1.0,91,0.00,,,0.00,269.0,meteohub,2013-06-24 13:03:00,
2013-06-24 08:08:00,68.0,64.9,29.84,ENE,78,0.0,1.0,90,0.00,,,0.00,258.0,meteohub,2013-06-24 13:08:00,
2013-06-24 08:14:00,68.9,65.1,29.84,North,355,0.0,1.0,88,0.00,,,0.00,267.0,meteohub,2013-06-24 13:14:00,
2013-06-24 08:19:00,69.4,65.1,29.85,NNW,329,0.0,2.0,86,0.00,,,0.00,248.0,meteohub,2013-06-24 13:19:00,
2013-06-24 08:24:00,69.4,65.5,29.85,NNW,329,0.0,2.0,87,0.00,,,0.00,258.0,meteohub,2013-06-24 13:24:00,
2013-06-24 08:29:00,70.5,65.8,29.85,WNW,298,1.0,2.0,85,0.00,,,0.00,244.0,meteohub,2013-06-24 13:29:00,
2013-06-24 08:34:00,70.3,66.0,29.85,WNW,298,0.0,3.0,86,0.00,,,0.00,237.0,meteohub,2013-06-24 13:34:00,
2013-06-24 08:39:00,70.3,65.7,29.85,NW,324,0.0,3.0,85,0.00,,,0.00,221.0,meteohub,2013-06-24 13:39:00,
2013-06-24 08:45:00,70.5,65.1,29.84,NNW,348,0.0,3.0,83,0.00,,,0.00,216.0,meteohub,2013-06-24 13:45:00,
2013-06-24 08:51:00,70.3,66.0,29.84,NNW,348,0.0,3.0,86,0.00,,,0.00,213.0,meteohub,2013-06-24 13:51:00,
2013-06-24 08:56:00,71.1,65.7,29.84,NNW,348,0.0,2.0,83,0.00,,,0.00,218.0,meteohub,2013-06-24 13:56:00,
2013-06-24 09:01:00,71.2,66.2,29.83,NNW,348,0.0,2.0,84,0.00,,,0.00,230.0,meteohub,2013-06-24 14:01:00,
2013-06-24 09:06:00,71.8,66.4,29.83,NNW,348,0.0,2.0,83,0.00,,,0.00,137.0,meteohub,2013-06-24 14:06:00,
2013-06-24 09:12:00,72.0,66.2,29.84,NNE,22,0.0,2.0,82,0.00,,,0.00,202.0,meteohub,2013-06-24 14:12:00,
2013-06-24 09:17:00,71.6,67.5,29.84,North,349,0.0,2.0,87,0.00,,,0.00,207.0,meteohub,2013-06-24 14:17:00,
2013-06-24 09:22:00,71.8,67.6,29.84,NW,323,0.0,2.0,87,0.00,,,0.00,195.0,meteohub,2013-06-24 14:22:00,
2013-06-24 09:27:00,71.8,67.3,29.84,North,355,0.0,1.0,86,0.00,,,0.00,190.0,meteohub,2013-06-24 14:27:00,
2013-06-24 09:32:00,71.4,67.6,29.84,WNW,283,2.0,4.0,88,0.00,,,0.00,190.0,meteohub,2013-06-24 14:32:00,
2013-06-24 09:37:00,71.4,67.3,29.84,West,279,0.0,4.0,87,0.00,,,0.00,188.0,meteohub,2013-06-24 14:37:00,
2013-06-24 09:42:00,71.4,67.3,29.85,WNW,294,0.0,4.0,87,0.00,,,0.00,128.0,meteohub,2013-06-24 14:42:00,
2013-06-24 09:47:00,71.8,67.6,29.85,WNW,282,0.0,3.0,87,0.00,,,0.00,165.0,meteohub,2013-06-24 14:47:00,
2013-06-24 09:53:00,71.4,66.7,29.85,WNW,282,0.0,3.0,85,0.00,,,0.00,174.0,meteohub,2013-06-24 14:53:00,
2013-06-24 09:58:00,71.4,67.1,29.86,NNW,346,0.0,3.0,86,0.00,,,0.00,162.0,meteohub,2013-06-24 14:58:00,
2013-06-24 10:03:00,71.2,67.5,29.86,NNW,346,0.0,2.0,88,0.00,,,0.00,148.0,meteohub,2013-06-24 15:03:00,
2013-06-24 10:08:00,71.1,66.9,29.86,WSW,248,0.0,2.0,87,0.00,,,0.00,144.0,meteohub,2013-06-24 15:08:00,
2013-06-24 10:13:00,71.2,67.5,29.85,NW,316,0.0,2.0,88,0.00,,,0.00,144.0,meteohub,2013-06-24 15:13:00,
2013-06-24 10:18:00,71.1,67.3,29.85,NW,316,0.0,2.0,88,0.00,,,0.00,162.0,meteohub,2013-06-24 15:18:00,
2013-06-24 10:25:00,71.2,67.1,29.85,NW,316,0.0,2.0,87,0.00,,,0.00,178.0,meteohub,2013-06-24 15:25:00,
2013-06-24 10:30:00,71.4,67.6,29.85,NW,316,0.0,2.0,88,0.00,,,0.00,190.0,meteohub,2013-06-24 15:30:00,
2013-06-24 10:36:00,71.8,68.0,29.85,NW,316,0.0,1.0,88,0.00,,,0.00,104.0,meteohub,2013-06-24 15:36:00,
2013-06-24 10:41:00,72.1,67.6,29.84,WNW,285,0.0,1.0,86,0.00,,,0.00,109.0,meteohub,2013-06-24 15:41:00,
2013-06-24 10:46:00,72.1,67.5,29.84,WNW,286,0.0,2.0,85,0.00,,,0.00,190.0,meteohub,2013-06-24 15:46:00,
2013-06-24 10:51:00,72.1,68.0,29.84,WNW,286,0.0,2.0,87,0.00,,,0.00,192.0,meteohub,2013-06-24 15:51:00,
2013-06-24 10:57:00,72.3,67.8,29.83,WNW,286,0.0,2.0,86,0.00,,,0.00,183.0,meteohub,2013-06-24 15:57:00,
2013-06-24 11:02:00,72.3,68.5,29.83,WNW,290,0.0,2.0,88,0.00,,,0.00,171.0,meteohub,2013-06-24 16:02:00,
2013-06-24 11:07:00,72.3,67.8,29.82,NE,45,0.0,2.0,86,0.00,,,0.00,160.0,meteohub,2013-06-24 16:07:00,
2013-06-24 11:12:00,72.3,68.2,29.81,NE,45,1.0,2.0,87,0.00,,,0.00,156.0,meteohub,2013-06-24 16:12:00,
2013-06-24 11:17:00,72.3,67.8,29.81,NE,45,2.0,2.0,86,0.00,,,0.00,149.0,meteohub,2013-06-24 16:17:00,
2013-06-24 11:22:00,72.7,67.8,29.80,North,5,0.0,2.0,85,0.00,,,0.00,155.0,meteohub,2013-06-24 16:22:00,
2013-06-24 11:27:00,72.7,67.8,29.79,NE,36,0.0,2.0,85,0.00,,,0.00,167.0,meteohub,2013-06-24 16:27:00,
2013-06-24 11:32:00,72.9,67.5,29.78,NW,324,0.0,2.0,83,0.00,,,0.00,174.0,meteohub,2013-06-24 16:32:00,
2013-06-24 11:37:00,72.9,67.8,29.78,NE,35,0.0,3.0,84,0.00,,,0.00,190.0,meteohub,2013-06-24 16:37:00,
2013-06-24 11:42:00,73.0,67.3,29.77,SE,140,0.0,3.0,82,0.00,,,0.00,227.0,meteohub,2013-06-24 16:42:00,
2013-06-24 11:47:00,73.2,67.5,29.77,NNE,19,0.0,3.0,82,0.00,,,0.00,258.0,meteohub,2013-06-24 16:47:00,
2013-06-24 11:52:00,73.6,67.5,29.78,NNW,347,0.0,3.0,81,0.00,,,0.00,271.0,meteohub,2013-06-24 16:52:00,
2013-06-24 11:57:00,73.9,68.4,29.78,SW,226,0.0,4.0,83,0.00,,,0.00,299.0,meteohub,2013-06-24 16:57:00,
2013-06-24 12:02:00,74.1,68.2,29.78,NW,326,0.0,4.0,82,0.00,,,0.00,311.0,meteohub,2013-06-24 17:02:00,
2013-06-24 12:08:00,74.7,68.4,29.78,WNW,294,0.0,3.0,81,0.00,,,0.00,315.0,meteohub,2013-06-24 17:08:00,
2013-06-24 12:13:00,74.8,68.5,29.79,WNW,297,0.0,3.0,81,0.00,,,0.00,269.0,meteohub,2013-06-24 17:13:00,
2013-06-24 12:18:00,74.8,68.9,29.79,West,271,0.0,3.0,82,0.00,,,0.00,134.0,meteohub,2013-06-24 17:18:00,
2013-06-24 12:23:00,75.0,68.4,29.79,North,355,0.0,3.0,80,0.00,,,0.00,114.0,meteohub,2013-06-24 17:23:00,
2013-06-24 12:28:00,74.7,68.7,29.79,NW,320,2.0,5.0,82,0.00,,,0.00,202.0,meteohub,2013-06-24 17:28:00,
2013-06-24 12:34:00,74.8,68.5,29.79,North,355,0.0,5.0,81,0.00,,,0.00,197.0,meteohub,2013-06-24 17:34:00,
2013-06-24 12:39:00,74.8,68.9,29.79,North,355,0.0,5.0,82,0.00,,,0.00,183.0,meteohub,2013-06-24 17:39:00,
2013-06-24 12:44:00,74.8,69.3,29.78,NNW,340,0.0,5.0,83,0.00,,,0.00,169.0,meteohub,2013-06-24 17:44:00,
2013-06-24 12:50:00,74.7,68.7,29.78,SW,225,0.0,4.0,82,0.00,,,0.00,156.0,meteohub,2013-06-24 17:50:00,
2013-06-24 12:55:00,74.7,69.1,29.78,NW,304,0.0,4.0,83,0.00,,,0.00,158.0,meteohub,2013-06-24 17:55:00,
2013-06-24 13:00:00,74.5,69.3,29.78,NW,305,0.0,3.0,84,0.00,,,0.00,160.0,meteohub,2013-06-24 18:00:00,
2013-06-24 13:05:00,74.7,69.4,29.77,NW,317,0.0,3.0,84,0.00,,,0.00,155.0,meteohub,2013-06-24 18:05:00,
2013-06-24 13:10:00,74.5,68.9,29.77,NNE,25,0.0,5.0,83,0.00,,,0.00,134.0,meteohub,2013-06-24 18:10:00,
2013-06-24 13:15:00,74.7,69.1,29.77,WNW,293,0.0,5.0,83,0.00,,,0.00,128.0,meteohub,2013-06-24 18:15:00,
2013-06-24 13:20:00,74.5,70.0,29.78,WSW,253,0.0,5.0,86,0.00,,,0.00,113.0,meteohub,2013-06-24 18:20:00,
2013-06-24 13:25:00,73.9,69.8,29.78,West,267,0.0,4.0,87,0.00,,,0.00,121.0,meteohub,2013-06-24 18:25:00,
2013-06-24 13:30:00,73.6,69.8,29.78,WNW,289,0.0,4.0,88,0.00,,,0.00,114.0,meteohub,2013-06-24 18:30:00,
2013-06-24 13:35:00,73.9,69.4,29.78,NNW,331,2.0,3.0,86,0.00,,,0.00,107.0,meteohub,2013-06-24 18:35:00,
2013-06-24 13:40:00,74.5,69.6,29.78,West,277,0.0,5.0,85,0.00,,,0.00,104.0,meteohub,2013-06-24 18:40:00,
2013-06-24 13:45:00,74.3,69.4,29.78,WNW,292,1.0,5.0,85,0.00,,,0.00,120.0,meteohub,2013-06-24 18:45:00,
2013-06-24 13:51:00,74.7,69.4,29.78,West,268,1.0,4.0,84,0.00,,,0.00,141.0,meteohub,2013-06-24 18:51:00,
2013-06-24 13:57:00,74.8,69.6,29.77,West,261,2.0,3.0,84,0.00,,,0.00,171.0,meteohub,2013-06-24 18:57:00,
2013-06-24 14:02:00,75.0,69.8,29.78,NE,43,0.0,4.0,84,0.00,,,0.00,165.0,meteohub,2013-06-24 19:02:00,
2013-06-24 14:07:00,75.0,70.2,29.77,NNW,328,0.0,4.0,85,0.00,,,0.00,181.0,meteohub,2013-06-24 19:07:00,
2013-06-24 14:12:00,75.0,70.2,29.76,NNW,328,0.0,3.0,85,0.00,,,0.00,229.0,meteohub,2013-06-24 19:12:00,
2013-06-24 14:17:00,75.0,71.2,29.76,NNW,331,0.0,3.0,88,0.00,,,0.00,257.0,meteohub,2013-06-24 19:17:00,
2013-06-24 14:22:00,75.4,71.2,29.76,NNE,18,3.0,3.0,87,0.00,,,0.00,313.0,meteohub,2013-06-24 19:22:00,
2013-06-24 14:27:00,76.1,70.2,29.76,West,263,0.0,3.0,82,0.00,,,0.00,309.0,meteohub,2013-06-24 19:27:00,
2013-06-24 14:32:00,76.6,70.7,29.77,NNW,339,1.0,3.0,82,0.00,,,0.00,322.0,meteohub,2013-06-24 19:32:00,
2013-06-24 14:37:00,77.0,71.8,29.77,WSW,255,2.0,3.0,84,0.00,,,0.00,281.0,meteohub,2013-06-24 19:37:00,
2013-06-24 14:42:00,76.8,70.9,29.76,West,278,0.0,2.0,82,0.00,,,0.00,236.0,meteohub,2013-06-24 19:42:00,
2013-06-24 14:47:00,76.6,71.8,29.77,West,278,0.0,2.0,85,0.00,,,0.00,151.0,meteohub,2013-06-24 19:47:00,
2013-06-24 14:52:00,76.3,71.4,29.78,West,277,0.0,2.0,85,0.00,,,0.00,95.0,meteohub,2013-06-24 19:52:00,
2013-06-24 14:58:00,75.6,71.8,29.78,WNW,296,0.0,2.0,88,0.00,,,0.00,46.0,meteohub,2013-06-24 19:58:00,
2013-06-24 15:03:00,74.7,71.2,29.79,West,267,0.0,1.0,89,0.00,,,0.00,28.0,meteohub,2013-06-24 20:03:00,
2013-06-24 15:07:00,73.9,70.9,29.81,West,275,0.0,2.0,90,0.00,,,0.00,25.0,meteohub,2013-06-24 20:07:00,
2013-06-24 15:12:00,73.8,70.9,29.81,WNW,295,0.0,4.0,91,0.00,,,0.00,28.0,meteohub,2013-06-24 20:12:00,
2013-06-24 15:18:00,73.0,70.5,29.80,NE,38,0.0,4.0,92,0.06,,,0.06,32.0,meteohub,2013-06-24 20:18:00,
2013-06-24 15:23:00,72.3,69.8,29.80,NNW,330,0.0,4.0,92,0.08,,,0.08,32.0,meteohub,2013-06-24 20:23:00,
2013-06-24 15:29:00,72.0,69.8,29.80,NNW,330,0.0,3.0,93,0.08,,,0.08,35.0,meteohub,2013-06-24 20:29:00,
2013-06-24 15:34:00,71.6,70.2,29.79,NNW,330,0.0,2.0,95,0.09,,,0.09,42.0,meteohub,2013-06-24 20:34:00,
2013-06-24 15:39:00,71.4,70.0,29.79,NNW,330,0.0,2.0,95,0.09,,,0.09,54.0,meteohub,2013-06-24 20:39:00,
2013-06-24 15:44:00,71.4,70.2,29.79,NNW,330,0.0,0.0,96,0.09,,,0.09,84.0,meteohub,2013-06-24 20:44:00,
2013-06-24 15:49:00,71.4,70.2,29.80,NNW,330,0.0,0.0,96,0.09,,,0.09,127.0,meteohub,2013-06-24 20:49:00,
2013-06-24 15:54:00,72.1,71.2,29.80,NNW,330,0.0,0.0,97,0.09,,,0.09,169.0,meteohub,2013-06-24 20:54:00,
2013-06-24 15:59:00,72.1,71.2,29.80,NNW,330,0.0,0.0,97,0.10,,,0.10,193.0,meteohub,2013-06-24 20:59:00,
2013-06-24 16:04:00,72.9,72.0,29.80,NNW,330,0.0,0.0,97,0.11,,,0.11,179.0,meteohub,2013-06-24 21:04:00,
2013-06-24 16:09:00,72.7,71.4,29.79,ENE,69,1.0,0.0,96,0.11,,,0.11,186.0,meteohub,2013-06-24 21:09:00,
2013-06-24 16:14:00,72.3,70.5,29.79,SSE,163,0.0,2.0,94,0.10,,,0.11,195.0,meteohub,2013-06-24 21:14:00,
2013-06-24 16:19:00,71.4,68.7,29.78,West,280,0.0,3.0,91,0.04,,,0.11,185.0,meteohub,2013-06-24 21:19:00,
2013-06-24 16:24:00,71.1,68.4,29.79,NNE,24,0.0,5.0,91,0.03,,,0.11,171.0,meteohub,2013-06-24 21:24:00,
2013-06-24 16:29:00,70.5,68.0,29.79,North,9,0.0,5.0,92,0.03,,,0.11,148.0,meteohub,2013-06-24 21:29:00,
2013-06-24 16:35:00,70.2,68.0,29.78,ENE,58,0.0,5.0,93,0.02,,,0.11,139.0,meteohub,2013-06-24 21:35:00,
2013-06-24 16:40:00,70.0,67.8,29.78,South,171,0.0,2.0,93,0.02,,,0.11,132.0,meteohub,2013-06-24 21:40:00,
2013-06-24 16:45:00,69.4,67.6,29.78,South,171,0.0,2.0,94,0.02,,,0.11,120.0,meteohub,2013-06-24 21:45:00,
2013-06-24 16:50:00,69.4,67.6,29.78,South,171,0.0,0.0,94,0.01,,,0.11,127.0,meteohub,2013-06-24 21:50:00,
2013-06-24 16:55:00,69.4,68.0,29.78,ENE,69,0.0,0.0,95,0.01,,,0.11,97.0,meteohub,2013-06-24 21:55:00,
2013-06-24 17:00:00,69.6,68.4,29.77,ENE,69,0.0,1.0,96,0.00,,,0.11,86.0,meteohub,2013-06-24 22:00:00,
2013-06-24 17:05:00,70.0,68.7,29.76,ENE,69,0.0,1.0,96,0.00,,,0.11,77.0,meteohub,2013-06-24 22:05:00,
2013-06-24 17:11:00,70.2,68.9,29.76,SSE,147,0.0,1.0,96,0.00,,,0.11,72.0,meteohub,2013-06-24 22:11:00,
2013-06-24 17:16:00,70.3,69.4,29.76,SSE,147,0.0,1.0,97,0.00,,,0.11,63.0,meteohub,2013-06-24 22:16:00,
2013-06-24 17:21:00,70.5,69.6,29.75,South,184,0.0,1.0,97,0.00,,,0.11,74.0,meteohub,2013-06-24 22:21:00,
2013-06-24 17:26:00,71.1,70.2,29.75,West,262,0.0,1.0,97,0.00,,,0.11,116.0,meteohub,2013-06-24 22:26:00,
2013-06-24 17:31:00,71.4,70.5,29.75,West,281,0.0,2.0,97,0.00,,,0.11,135.0,meteohub,2013-06-24 22:31:00,
2013-06-24 17:37:00,72.0,70.7,29.74,North,5,0.0,2.0,96,0.00,,,0.11,121.0,meteohub,2013-06-24 22:37:00,
2013-06-24 17:41:00,72.1,70.7,29.74,ENE,57,0.0,3.0,95,0.00,,,0.11,100.0,meteohub,2013-06-24 22:41:00,
2013-06-24 17:47:00,72.1,70.7,29.73,North,5,0.0,3.0,95,0.00,,,0.11,104.0,meteohub,2013-06-24 22:47:00,
2013-06-24 17:52:00,72.5,71.1,29.73,NW,309,0.0,3.0,95,0.00,,,0.11,116.0,meteohub,2013-06-24 22:52:00,
2013-06-24 17:57:00,72.9,71.4,29.73,NW,305,1.0,3.0,95,0.00,,,0.11,121.0,meteohub,2013-06-24 22:57:00,
2013-06-24 18:02:00,72.9,71.4,29.72,WNW,296,0.0,3.0,95,0.00,,,0.11,123.0,meteohub,2013-06-24 23:02:00,
2013-06-24 18:07:00,72.9,71.4,29.72,NNW,347,0.0,3.0,95,0.00,,,0.11,132.0,meteohub,2013-06-24 23:07:00,
2013-06-24 18:12:00,73.0,71.6,29.72,NNW,347,0.0,5.0,95,0.00,,,0.11,141.0,meteohub,2013-06-24 23:12:00,
2013-06-24 18:17:00,72.7,70.9,29.72,WSW,258,0.0,5.0,94,0.00,,,0.11,121.0,meteohub,2013-06-24 23:17:00,
2013-06-24 18:23:00,72.7,71.2,29.72,West,275,0.0,5.0,95,0.00,,,0.11,116.0,meteohub,2013-06-24 23:23:00,
2013-06-24 18:28:00,72.7,71.2,29.72,West,281,4.0,4.0,95,0.00,,,0.11,116.0,meteohub,2013-06-24 23:28:00,
2013-06-24 18:33:00,73.0,71.2,29.72,NE,35,1.0,6.0,94,0.00,,,0.11,114.0,meteohub,2013-06-24 23:33:00,
2013-06-24 18:38:00,73.2,71.8,29.72,West,279,2.0,7.0,95,0.00,,,0.11,114.0,meteohub,2013-06-24 23:38:00,
2013-06-24 18:43:00,73.4,71.6,29.73,WSW,252,0.0,7.0,94,0.00,,,0.11,105.0,meteohub,2013-06-24 23:43:00,
2013-06-24 18:48:00,73.6,71.8,29.73,WNW,294,0.0,5.0,94,0.00,,,0.11,93.0,meteohub,2013-06-24 23:48:00,
2013-06-24 18:54:00,73.8,72.0,29.73,WNW,282,1.0,5.0,94,0.00,,,0.11,90.0,meteohub,2013-06-24 23:54:00,
2013-06-24 18:59:00,73.8,71.6,29.73,North,10,0.0,5.0,93,0.00,,,0.11,95.0,meteohub,2013-06-24 23:59:00,
2013-06-24 19:04:00,73.4,71.6,29.73,North,5,0.0,5.0,94,0.00,,,0.11,100.0,meteohub,2013-06-25 00:04:00,
2013-06-24 19:09:00,73.6,71.4,29.74,NNW,338,1.0,3.0,93,0.00,,,0.11,95.0,meteohub,2013-06-25 00:09:00,
2013-06-24 19:14:00,73.8,71.6,29.74,NE,46,0.0,3.0,93,0.00,,,0.11,95.0,meteohub,2013-06-25 00:14:00,
2013-06-24 19:20:00,73.8,71.6,29.73,NNW,340,0.0,3.0,93,0.00,,,0.11,90.0,meteohub,2013-06-25 00:20:00,
2013-06-24 19:25:00,73.6,71.4,29.73,SW,228,1.0,3.0,93,0.00,,,0.11,86.0,meteohub,2013-06-25 00:25:00,
2013-06-24 19:30:00,73.0,70.5,29.73,NNW,343,0.0,2.0,92,0.00,,,0.11,79.0,meteohub,2013-06-25 00:30:00,
2013-06-24 19:35:00,72.9,70.3,29.73,NNW,343,0.0,3.0,92,0.00,,,0.11,63.0,meteohub,2013-06-25 00:35:00,
2013-06-24 19:40:00,72.7,70.2,29.73,WNW,300,0.0,2.0,92,0.00,,,0.11,56.0,meteohub,2013-06-25 00:40:00,
2013-06-24 19:45:00,72.7,70.2,29.72,WNW,300,0.0,2.0,92,0.00,,,0.11,56.0,meteohub,2013-06-25 00:45:00,
2013-06-24 19:50:00,72.7,70.2,29.73,NW,305,0.0,2.0,92,0.00,,,0.11,58.0,meteohub,2013-06-25 00:50:00,
2013-06-24 19:55:00,72.7,70.0,29.73,WNW,303,0.0,4.0,91,0.00,,,0.11,54.0,meteohub,2013-06-25 00:55:00,
2013-06-24 20:00:00,73.2,69.8,29.74,North,355,0.0,4.0,89,0.00,,,0.11,47.0,meteohub,2013-06-25 01:00:00,
2013-06-24 20:06:00,73.8,70.0,29.74,North,0,0.0,4.0,88,0.00,,,0.11,40.0,meteohub,2013-06-25 01:06:00,
2013-06-24 20:11:00,74.1,69.6,29.74,NNE,15,0.0,3.0,86,0.00,,,0.11,42.0,meteohub,2013-06-25 01:11:00,
2013-06-24 20:17:00,73.8,70.3,29.74,East,93,0.0,1.0,89,0.00,,,0.11,39.0,meteohub,2013-06-25 01:17:00,
2013-06-24 20:22:00,72.9,69.8,29.74,East,93,0.0,1.0,90,0.00,,,0.11,39.0,meteohub,2013-06-25 01:22:00,
2013-06-24 20:27:00,72.9,70.2,29.74,East,93,0.0,1.0,91,0.00,,,0.11,35.0,meteohub,2013-06-25 01:27:00,
2013-06-24 20:32:00,72.9,70.2,29.75,East,93,0.0,1.0,91,0.00,,,0.11,25.0,meteohub,2013-06-25 01:32:00,
2013-06-24 20:38:00,72.7,70.0,29.75,East,93,0.0,1.0,91,0.00,,,0.11,14.0,meteohub,2013-06-25 01:38:00,
2013-06-24 20:43:00,72.3,69.6,29.74,East,93,0.0,0.0,91,0.00,,,0.11,9.0,meteohub,2013-06-25 01:43:00,
2013-06-24 20:48:00,72.1,69.4,29.74,WNW,292,0.0,0.0,91,0.00,,,0.11,7.0,meteohub,2013-06-25 01:48:00,
2013-06-24 20:54:00,71.8,69.1,29.74,WNW,292,0.0,2.0,91,0.00,,,0.11,5.0,meteohub,2013-06-25 01:54:00,
2013-06-24 20:59:00,71.2,69.1,29.74,WNW,292,0.0,2.0,93,0.00,,,0.11,0.0,meteohub,2013-06-25 01:59:00,
2013-06-24 21:04:00,71.1,68.5,29.74,WNW,292,0.0,0.0,92,0.00,,,0.11,0.0,meteohub,2013-06-25 02:04:00,
2013-06-24 21:09:00,70.9,69.1,29.74,WNW,292,0.0,0.0,94,0.00,,,0.11,0.0,meteohub,2013-06-25 02:09:00,
2013-06-24 21:14:00,70.5,68.4,29.75,WNW,292,0.0,0.0,93,0.00,,,0.11,0.0,meteohub,2013-06-25 02:14:00,
2013-06-24 21:19:00,70.3,68.5,29.75,WNW,292,0.0,0.0,94,0.00,,,0.11,0.0,meteohub,2013-06-25 02:19:00,
2013-06-24 21:24:00,70.2,68.4,29.75,WNW,292,0.0,0.0,94,0.00,,,0.11,0.0,meteohub,2013-06-25 02:24:00,
2013-06-24 21:29:00,70.2,68.4,29.75,WNW,292,0.0,0.0,94,0.00,,,0.11,0.0,meteohub,2013-06-25 02:29:00,
2013-06-24 21:34:00,70.0,68.2,29.75,WNW,292,0.0,0.0,94,0.00,,,0.11,0.0,meteohub,2013-06-25 02:34:00,
2013-06-24 21:39:00,70.0,68.2,29.75,WNW,292,0.0,0.0,94,0.00,,,0.11,0.0,meteohub,2013-06-25 02:39:00,
2013-06-24 21:45:00,70.0,68.2,29.75,WNW,292,0.0,0.0,94,0.00,,,0.11,0.0,meteohub,2013-06-25 02:45:00,
2013-06-24 21:50:00,70.0,68.5,29.75,WNW,292,0.0,0.0,95,0.00,,,0.11,0.0,meteohub,2013-06-25 02:50:00,
2013-06-24 21:55:00,69.8,68.4,29.75,WNW,292,0.0,0.0,95,0.00,,,0.11,0.0,meteohub,2013-06-25 02:55:00,
2013-06-24 22:02:00,69.6,68.2,29.75,WNW,292,0.0,0.0,95,0.00,,,0.11,0.0,meteohub,2013-06-25 03:02:00,
2013-06-24 22:07:00,69.4,68.0,29.75,WNW,292,0.0,0.0,95,0.00,,,0.11,0.0,meteohub,2013-06-25 03:07:00,
2013-06-24 22:12:00,69.4,68.0,29.75,WNW,292,0.0,0.0,95,0.00,,,0.11,0.0,meteohub,2013-06-25 03:12:00,
2013-06-24 22:17:00,69.3,67.8,29.75,WNW,292,0.0,0.0,95,0.00,,,0.11,0.0,meteohub,2013-06-25 03:17:00,
2013-06-24 22:22:00,69.3,68.0,29.75,WNW,292,0.0,0.0,96,0.00,,,0.11,0.0,meteohub,2013-06-25 03:22:00,
2013-06-24 22:27:00,69.1,67.8,29.76,WNW,292,0.0,0.0,96,0.00,,,0.11,0.0,meteohub,2013-06-25 03:27:00,
2013-06-24 22:33:00,68.9,67.6,29.75,WNW,292,0.0,0.0,96,0.00,,,0.11,0.0,meteohub,2013-06-25 03:33:00,
2013-06-24 22:38:00,68.9,67.6,29.75,WNW,292,0.0,0.0,96,0.00,,,0.11,0.0,meteohub,2013-06-25 03:38:00,
2013-06-24 22:43:00,68.7,67.5,29.75,WNW,292,0.0,0.0,96,0.00,,,0.11,0.0,meteohub,2013-06-25 03:43:00,
2013-06-24 22:49:00,68.7,67.5,29.76,WNW,292,0.0,0.0,96,0.00,,,0.11,0.0,meteohub,2013-06-25 03:49:00,
2013-06-24 22:54:00,68.5,67.3,29.76,WNW,292,0.0,0.0,96,0.00,,,0.11,0.0,meteohub,2013-06-25 03:54:00,
2013-06-24 22:59:00,68.5,67.3,29.76,WNW,292,0.0,0.0,96,0.00,,,0.11,0.0,meteohub,2013-06-25 03:59:00,
2013-06-24 23:01:00,68.4,67.1,29.76,WNW,292,0.0,0.0,96,0.00,,,0.11,0.0,meteohub,2013-06-25 04:01:00,
2013-06-24 23:02:00,68.4,67.1,29.76,WNW,292,0.0,0.0,96,0.00,,,0.11,0.0,meteohub,2013-06-25 04:02:00,
2013-06-24 23:07:00,68.4,67.1,29.76,WNW,292,0.0,0.0,96,0.00,,,0.11,0.0,meteohub,2013-06-25 04:07:00,
2013-06-24 23:12:00,68.4,67.1,29.76,North,0,0.0,1.0,96,0.00,,,0.11,0.0,meteohub,2013-06-25 04:12:00,
2013-06-24 23:17:00,68.2,66.9,29.76,North,0,0.0,1.0,96,0.00,,,0.11,0.0,meteohub,2013-06-25 04:17:00,
2013-06-24 23:22:00,68.2,66.9,29.75,WNW,294,0.0,1.0,96,0.00,,,0.11,0.0,meteohub,2013-06-25 04:22:00,
2013-06-24 23:27:00,67.8,66.6,29.75,WNW,295,0.0,0.0,96,0.00,,,0.11,0.0,meteohub,2013-06-25 04:27:00,
2013-06-24 23:32:00,67.8,66.6,29.75,WNW,296,0.0,1.0,96,0.00,,,0.11,0.0,meteohub,2013-06-25 04:32:00,
2013-06-24 23:38:00,67.8,66.6,29.75,WNW,298,0.0,2.0,96,0.00,,,0.11,0.0,meteohub,2013-06-25 04:38:00,
2013-06-24 23:43:00,68.0,66.7,29.75,SE,136,0.0,2.0,96,0.00,,,0.11,0.0,meteohub,2013-06-25 04:43:00,
2013-06-24 23:48:00,67.8,66.4,29.75,West,280,0.0,2.0,95,0.00,,,0.11,0.0,meteohub,2013-06-25 04:48:00,
2013-06-24 23:52:00,67.8,66.4,29.75,NNE,19,0.0,2.0,95,0.00,,,0.11,0.0,meteohub,2013-06-25 04:52:00,
2013-06-24 23:58:00,68.0,66.6,29.75,NE,42,0.0,2.0,95,0.00,,,0.11,0.0,meteohub,2013-06-25 04:58:00,